QPF
0.00 0.00 0.00 0.00 0.00 0.00 0.00 0.06 0.13 0.12 0.02 0.00 0.00 0.00 0.00 0.00 0.00 0.00 0.00 0.00 0.00 0.00 0.00 0.00 0.02 0.00 0.00 0.00 0.00 0.00 0.00 0.00 0.00 0.00 0.01 0.01 0.00 0.01 0.03 0.00 0.01 0.02 0.00 0.00 0.01 0.02 0.07 0.05 0.04
0.00 0.00 0.00 0.00 0.00 0.00 0.03 0.07 0.10 0.08 0.07 0.00 0.00 0.00 0.00 0.00 0.00 0.00 0.00 0.00 0.00 0.00 0.00 0.00 0.02 0.01 0.00 0.00 0.00 0.00 0.00 0.00 0.01 0.00 0.03 0.02 0.05 0.05 0.07 0.03 0.01 0.01 0.01 0.01 0.01 0.05 0.05 0.03 0.05
0.00 0.00 0.00 0.00 0.00 0.00 0.08 0.17 0.18 0.12 0.07 0.01 0.00 0.00 0.00 0.00 0.00 0.00 0.00 0.00 0.00 0.00 0.00 0.00 0.01 0.01 0.00 0.00 0.00 0.00 0.00 0.00 0.00 0.00 0.02 0.03 0.03 0.02 0.04 0.05 0.02 0.00 0.03 0.03 0.00 0.01 0.01 0.01 0.07
0.00 0.00 0.00 0.00 0.00 0.01 0.12 0.29 0.27 0.15 0.16 0.02 0.00 0.01 0.00 0.00 0.00 0.00 0.00 0.00 0.00 0.00 0.00 0.00 0.00 0.00 0.01 0.00 0.00 0.00 0.00 0.01 0.01 0.01 0.00 0.00 0.00 0.00 0.03 0.02 0.02 0.01 0.02 0.03 0.01 0.00 0.00 0.05 0.06
0.00 0.00 0.00 0.00 0.03 0.10 0.14 0.14 0.69 0.43 0.20 0.03 0.00 0.01 0.01 0.00 0.00 0.00 0.00 0.00 0.00 0.00 0.00 0.00 0.01 0.01 0.00 0.00 0.00 0.00 0.00 0.00 0.00 0.00 0.01 0.00 0.01 0.02 0.09 0.02 0.07 0.04 0.00 0.00 0.00 0.00 0.00 0.04 0.07
0.00 0.00 0.01 0.00 0.01 0.07 0.06 0.13 0.62 0.50 0.03 0.03 0.07 0.01 0.01 0.00 0.00 0.00 0.00 0.00 0.00 0.00 0.00 0.00 0.01 0.02 0.00 0.00 0.00 0.01 0.01 0.00 0.00 0.00 0.00 0.00 0.00 0.02 0.03 0.08 0.04 0.00 0.00 0.00 0.00 0.03 0.06 0.10 0.11
0.00 0.00 0.00 0.00 0.01 0.08 0.06 0.07 0.12 0.04 0.00 0.00 0.02 0.00 0.01 0.00 0.00 0.00 0.00 0.00 0.00 0.00 0.00 0.00 0.00 0.00 0.01 0.02 0.02 0.02 0.03 0.00 0.00 0.00 0.00 0.00 0.01 0.03 0.07 0.04 0.01 0.00 0.00 0.00 0.00 0.08 0.06 0.09 0.06
0.00 0.00 0.00 0.00 0.00 0.05 0.03 0.10 0.08 0.00 0.00 0.00 0.00 0.00 0.01 0.00 0.00 0.00 0.00 0.00 0.00 0.00 0.00 0.00 0.00 0.01 0.02 0.05 0.02 0.03 0.00 0.01 0.00 0.00 0.00 0.02 0.02 0.02 0.02 0.01 0.01 0.00 0.00 0.00 0.01 0.06 0.11 0.17 0.11
0.00 0.00 0.00 0.00 0.00 0.02 0.03 0.08 0.05 0.00 0.00 0.00 0.00 0.00 0.00 0.00 0.00 0.00 0.00 0.00 0.00 0.00 0.00 0.00 0.00 0.00 0.02 0.04 0.03 0.00 0.00 0.00 0.00 0.00 0.00 0.00 0.00 0.00 0.00 0.00 0.01 0.00 0.00 0.00 0.00 0.02 0.08 0.11 0.07
0.01 0.00 0.00 0.00 0.00 0.00 0.05 0.11 0.11 0.01 0.00 0.00 0.00 0.00 0.00 0.00 0.00 0.00 0.00 0.00 0.00 0.00 0.00 0.00 0.00 0.00 0.00 0.01 0.03 0.00 0.00 0.00 0.00 0.00 0.00 0.00 0.00 0.00 0.00 0.00 0.00 0.00 0.00 0.00 0.00 0.02 0.01 0.00 0.02
0.00 0.00 0.00 0.00 0.00 0.00 0.04 0.11 0.05 0.00 0.01 0.01 0.00 0.00 0.00 0.00 0.00 0.00 0.00 0.00 0.00 0.00 0.00 0.00 0.00 0.00 0.00 0.00 0.00 0.00 0.00 0.00 0.00 0.00 0.00 0.00 0.00 0.00 0.00 0.00 0.00 0.00 0.00 0.00 0.00 0.00 0.00 0.00 0.00
0.00 0.00 0.00 0.00 0.00 0.00 0.00 0.00 0.01 0.01 0.07 0.02 0.00 0.00 0.00 0.00 0.00 0.00 0.00 0.00 0.00 0.00 0.00 0.00 0.00 0.00 0.00 0.00 0.00 0.00 0.00 0.00 0.00 0.00 0.00 0.00 0.00 0.00 0.00 0.00 0.00 0.00 0.00 0.00 0.00 0.00 0.00 0.00 0.00
0.00 0.00 0.00 0.00 0.00 0.00 0.00 0.00 0.00 0.01 0.05 0.00 0.00 0.00 0.00 0.00 0.00 0.00 0.00 0.00 0.00 0.00 0.00 0.00 0.00 0.00 0.00 0.00 0.00 0.00 0.00 0.00 0.00 0.00 0.00 0.00 0.00 0.00 0.00 0.00 0.00 0.00 0.00 0.00 0.00 0.00 0.00 0.00 0.00
0.00 0.00 0.00 0.00 0.00 0.00 0.00 0.00 0.01 0.02 0.01 0.04 0.04 0.00 0.00 0.00 0.00 0.00 0.00 0.00 0.00 0.00 0.00 0.00 0.00 0.00 0.00 0.00 0.00 0.00 0.00 0.00 0.00 0.00 0.00 0.00 0.00 0.00 0.01 0.00 0.00 0.00 0.00 0.00 0.00 0.00 0.00 0.00 0.00
0.00 0.00 0.00 0.00 0.00 0.00 0.00 0.00 0.00 0.03 0.12 0.04 0.04 0.01 0.00 0.00 0.00 0.00 0.00 0.00 0.00 0.00 0.00 0.00 0.00 0.00 0.00 0.00 0.00 0.00 0.00 0.00 0.00 0.00 0.00 0.00 0.00 0.02 0.02 0.01 0.02 0.00 0.00 0.00 0.00 0.00 0.00 0.00 0.00
0.00 0.00 0.00 0.00 0.00 0.00 0.00 0.01 0.02 0.06 0.11 0.03 0.02 0.00 0.00 0.00 0.00 0.00 0.00 0.00 0.00 0.00 0.00 0.00 0.00 0.00 0.00 0.00 0.00 0.00 0.00 0.00 0.00 0.00 0.00 0.01 0.00 0.01 0.02 0.03 0.04 0.00 0.00 0.00 0.00 0.00 0.00 0.00 0.00
0.00 0.00 0.00 0.00 0.00 0.00 0.01 0.01 0.03 0.02 0.02 0.04 0.04 0.01 0.00 0.00 0.00 0.00 0.00 0.00 0.00 0.00 0.00 0.00 0.00 0.00 0.00 0.00 0.00 0.00 0.00 0.00 0.00 0.00 0.00 0.00 0.00 0.00 0.03 0.02 0.01 0.00 0.00 0.00 0.00 0.00 0.00 0.00 0.00
0.00 0.00 0.00 0.00 0.00 0.00 0.00 0.00 0.00 0.00 0.01 0.04 0.04 0.01 0.00 0.00 0.00 0.00 0.00 0.00 0.00 0.00 0.00 0.00 0.00 0.00 0.00 0.00 0.00 0.00 0.00 0.00 0.00 0.00 0.00 0.00 0.00 0.00 0.01 0.00 0.00 0.00 0.00 0.00 0.00 0.00 0.00 0.00 0.00
0.00 0.00 0.00 0.00 0.00 0.00 0.00 0.00 0.00 0.00 0.00 0.00 0.00 0.00 0.00 0.00 0.00 0.00 0.00 0.00 0.00 0.00 0.00 0.00 0.00 0.00 0.00 0.00 0.00 0.00 0.00 0.00 0.00 0.00 0.00 0.01 0.01 0.00 0.00 0.03 0.00 0.00 0.00 0.00 0.00 0.00 0.00 0.00 0.00
0.00 0.00 0.00 0.00 0.00 0.00 0.00 0.00 0.00 0.00 0.00 0.00 0.00 0.00 0.00 0.00 0.00 0.00 0.00 0.00 0.00 0.00 0.00 0.00 0.00 0.00 0.00 0.00 0.00 0.00 0.00 0.00 0.00 0.00 0.00 0.01 0.01 0.02 0.00 0.00 0.00 0.00 0.00 0.00 0.00 0.00 0.00 0.00 0.00
0.00 0.00 0.00 0.00 0.00 0.00 0.00 0.00 0.00 0.00 0.00 0.00 0.00 0.00 0.00 0.00 0.00 0.00 0.00 0.00 0.00 0.00 0.00 0.00 0.00 0.00 0.00 0.00 0.00 0.00 0.00 0.00 0.00 0.00 0.00 0.00 0.00 0.02 0.00 0.00 0.00 0.00 0.00 0.00 0.00 0.00 0.00 0.00 0.00
0.00 0.00 0.00 0.00 0.00 0.00 0.00 0.00 0.00 0.00 0.00 0.00 0.00 0.00 0.00 0.00 0.00 0.00 0.00 0.00 0.00 0.00 0.00 0.00 0.00 0.00 0.00 0.00 0.00 0.00 0.00 0.00 0.00 0.00 0.00 0.00 0.00 0.02 0.01 0.00 0.00 0.00 0.00 0.00 0.00 0.00 0.00 0.00 0.00
0.00 0.00 0.00 0.00 0.00 0.00 0.00 0.00 0.00 0.00 0.00 0.00 0.00 0.00 0.00 0.00 0.00 0.00 0.00 0.00 0.00 0.00 0.00 0.00 0.00 0.00 0.00 0.00 0.00 0.00 0.00 0.00 0.00 0.00 0.00 0.00 0.00 0.03 0.01 0.00 0.00 0.00 0.00 0.00 0.00 0.00 0.00 0.00 0.00
0.00 0.00 0.00 0.00 0.00 0.00 0.00 0.00 0.00 0.00 0.00 0.00 0.00 0.00 0.00 0.00 0.00 0.00 0.00 0.00 0.00 0.00 0.00 0.00 0.00 0.00 0.00 0.00 0.00 0.00 0.00 0.00 0.00 0.00 0.00 0.00 0.00 0.05 0.00 0.00 0.02 0.00 0.00 0.01 0.00 0.00 0.00 0.00 0.00
0.00 0.00 0.00 0.00 0.00 0.00 0.00 0.00 0.00 0.00 0.00 0.00 0.00 0.00 0.00 0.00 0.00 0.00 0.00 0.00 0.00 0.00 0.00 0.00 0.00 0.00 0.00 0.00 0.00 0.00 0.00 0.00 0.00 0.00 0.00 0.00 0.00 0.00 0.00 0.00 0.01 0.01 0.00 0.03 0.00 0.00 0.00 0.00 0.00
0.00 0.00 0.00 0.00 0.00 0.00 0.00 0.00 0.00 0.00 0.00 0.00 0.00 0.00 0.00 0.00 0.00 0.00 0.00 0.00 0.00 0.00 0.00 0.00 0.00 0.00 0.00 0.00 0.00 0.00 0.00 0.00 0.00 0.00 0.00 0.00 0.00 0.00 0.00 0.00 0.05 0.02 0.00 0.00 0.01 0.00 0.00 0.00 0.00
0.00 0.00 0.00 0.00 0.00 0.00 0.00 0.00 0.00 0.00 0.00 0.00 0.00 0.00 0.00 0.00 0.00 0.00 0.00 0.00 0.00 0.00 0.00 0.00 0.00 0.00 0.00 0.00 0.00 0.00 0.00 0.00 0.00 0.00 0.00 0.00 0.00 0.00 0.00 0.00 0.00 0.00 0.02 0.01 0.00 0.00 0.00 0.00 0.00
0.00 0.00 0.00 0.00 0.00 0.00 0.00 0.00 0.00 0.00 0.00 0.00 0.00 0.00 0.00 0.00 0.00 0.00 0.00 0.00 0.00 0.00 0.00 0.00 0.00 0.00 0.00 0.00 0.00 0.00 0.00 0.00 0.00 0.00 0.00 0.00 0.00 0.00 0.00 0.00 0.00 0.00 0.00 0.00 0.00 0.00 0.00 0.00 0.00
0.00 0.00 0.00 0.00 0.00 0.00 0.00 0.00 0.00 0.00 0.00 0.00 0.00 0.00 0.00 0.00 0.00 0.00 0.00 0.03 0.03 0.00 0.00 0.00 0.00 0.00 0.00 0.00 0.00 0.00 0.00 0.00 0.00 0.00 0.00 0.00 0.00 0.00 0.00 0.00 0.00 0.00 0.00 0.00 0.01 0.00 0.00 0.00 0.00
0.00 0.00 0.00 0.00 0.00 0.00 0.00 0.00 0.00 0.00 0.00 0.00 0.00 0.00 0.00 0.00 0.00 0.00 0.00 0.03 0.02 0.01 0.00 0.00 0.00 0.00 0.00 0.00 0.00 0.00 0.00 0.00 0.00 0.00 0.00 0.00 0.00 0.00 0.00 0.00 0.00 0.00 0.00 0.00 0.01 0.05 0.00 0.00 0.00
MSLP
1012.43 1012.58 1012.71 1012.63 1012.73 1011.90 1011.46 1011.67 1011.53 1011.40 1011.18 1011.29 1011.75 1012.05 1012.55 1012.84 1013.82 1014.91 1015.36 1015.61 1015.89 1016.43 1016.86 1017.13 1017.45 1017.75 1017.93 1018.09 1018.20 1018.34 1018.44 1018.47 1018.53 1018.64 1018.78 1018.88 1018.95 1019.08 1019.17 1019.23 1019.27 1019.23 1019.24 1019.31 1019.33 1019.45 1019.50 1019.58 1019.64
1012.39 1012.69 1012.59 1012.09 1011.96 1011.35 1011.59 1011.99 1012.11 1012.29 1011.90 1011.90 1012.24 1012.51 1012.95 1013.81 1014.61 1015.06 1015.37 1015.73 1015.89 1016.35 1016.77 1016.98 1017.59 1017.81 1017.99 1018.17 1018.33 1018.40 1018.57 1018.69 1018.81 1018.84 1019.04 1019.17 1019.28 1019.36 1019.39 1019.49 1019.45 1019.45 1019.50 1019.57 1019.64 1019.68 1019.73 1019.83 1019.99
1012.47 1012.52 1012.26 1011.97 1011.65 1011.41 1011.89 1012.33 1012.65 1012.88 1012.52 1012.70 1012.86 1013.21 1013.79 1014.58 1015.13 1015.03 1015.39 1015.75 1015.99 1016.59 1016.93 1017.27 1017.76 1017.97 1018.26 1018.35 1018.47 1018.59 1018.80 1018.98 1019.06 1019.14 1019.35 1019.45 1019.51 1019.60 1019.74 1019.77 1019.63 1019.77 1019.83 1019.79 1019.87 1019.93 1019.98 1019.96 1020.15
1012.37 1012.52 1012.53 1012.02 1011.30 1011.38 1011.88 1012.59 1013.09 1013.21 1013.51 1013.29 1013.22 1013.69 1014.64 1015.01 1015.11 1015.33 1015.71 1015.74 1016.09 1016.72 1016.96 1017.55 1017.93 1018.16 1018.39 1018.54 1018.66 1018.83 1019.01 1019.16 1019.28 1019.39 1019.53 1019.56 1019.65 1019.75 1019.93 1019.85 1019.85 1020.03 1020.13 1020.04 1020.11 1020.21 1020.28 1020.35 1020.25
1012.15 1012.05 1011.82 1011.39 1011.07 1011.32 1011.83 1012.57 1012.87 1013.29 1013.39 1013.61 1013.32 1014.37 1015.15 1015.36 1015.41 1015.68 1015.94 1016.01 1016.24 1016.73 1017.15 1017.54 1018.03 1018.27 1018.54 1018.73 1018.88 1018.97 1019.15 1019.38 1019.45 1019.52 1019.65 1019.75 1019.90 1020.03 1020.15 1020.21 1020.28 1020.22 1020.25 1020.34 1020.45 1020.50 1020.51 1020.52 1020.43
1012.19 1012.14 1011.50 1010.81 1010.73 1011.22 1011.95 1012.37 1012.77 1013.15 1013.37 1013.64 1013.91 1014.31 1015.28 1015.69 1015.75 1016.01 1016.22 1016.30 1016.45 1016.93 1017.24 1017.71 1018.38 1018.52 1018.75 1018.93 1019.11 1019.17 1019.34 1019.55 1019.67 1019.73 1019.85 1019.99 1020.14 1020.28 1020.39 1020.46 1020.40 1020.47 1020.59 1020.71 1020.77 1020.74 1020.68 1020.78 1021.06
1011.88 1011.51 1010.99 1010.67 1010.51 1010.92 1011.85 1012.17 1012.50 1012.67 1012.67 1012.85 1013.44 1014.07 1015.52 1015.77 1015.92 1016.27 1016.55 1016.75 1016.78 1017.14 1017.41 1017.83 1018.16 1018.67 1018.92 1019.13 1019.24 1019.41 1019.53 1019.65 1019.84 1019.92 1020.06 1020.20 1020.35 1020.59 1020.75 1020.63 1020.63 1020.75 1020.91 1021.00 1020.99 1020.99 1020.98 1021.25 1021.23
1011.77 1011.34 1010.75 1010.28 1010.12 1011.19 1011.98 1011.97 1012.31 1012.12 1012.35 1012.49 1012.83 1013.46 1014.84 1015.52 1015.99 1016.45 1016.80 1017.12 1017.27 1017.34 1017.60 1018.07 1018.37 1018.62 1018.79 1019.17 1019.40 1019.60 1019.75 1019.81 1020.02 1020.15 1020.27 1020.40 1020.60 1020.79 1020.85 1020.85 1020.96 1021.07 1021.19 1021.29 1021.30 1021.29 1021.43 1021.47 1021.72
1011.56 1011.11 1010.36 1009.99 1009.83 1010.72 1011.55 1011.82 1012.29 1012.11 1012.21 1012.46 1012.80 1013.24 1013.90 1015.23 1015.96 1016.39 1016.83 1017.33 1017.55 1017.79 1017.87 1017.99 1018.34 1018.76 1019.21 1019.40 1019.45 1019.73 1019.88 1020.01 1020.14 1020.31 1020.61 1020.62 1020.63 1020.83 1020.74 1021.10 1021.23 1021.34 1021.41 1021.53 1021.59 1021.61 1021.76 1021.79 1021.94
1011.38 1010.80 1010.03 1009.87 1009.74 1010.15 1010.95 1011.41 1012.00 1011.99 1012.17 1013.05 1013.29 1013.76 1014.59 1015.40 1015.97 1016.26 1016.73 1017.08 1017.40 1017.75 1018.06 1018.04 1018.51 1018.80 1019.11 1019.21 1019.68 1019.78 1019.90 1020.05 1020.25 1020.51 1020.81 1020.92 1021.08 1021.13 1021.13 1021.28 1021.44 1021.57 1021.67 1021.75 1021.86 1021.97 1022.17 1021.97 1021.91
1011.10 1010.40 1010.09 1009.69 1009.65 1009.99 1010.42 1011.16 1011.61 1011.59 1012.09 1012.71 1013.01 1013.83 1014.61 1015.40 1015.98 1016.31 1016.78 1017.12 1017.29 1017.80 1018.27 1018.42 1018.67 1019.08 1019.13 1019.39 1019.65 1019.94 1020.07 1020.23 1020.50 1020.81 1021.05 1021.25 1021.26 1021.35 1021.45 1021.63 1021.58 1021.83 1022.11 1021.90 1021.98 1022.04 1022.07 1022.24 1022.21
1011.00 1010.34 1010.15 1009.75 1009.74 1009.95 1010.17 1010.54 1010.87 1011.23 1011.73 1012.24 1013.12 1013.94 1014.29 1015.13 1015.59 1015.99 1016.58 1017.14 1017.70 1018.14 1018.51 1018.55 1018.67 1019.16 1019.37 1019.50 1019.73 1020.13 1020.11 1020.37 1020.45 1020.85 1021.19 1021.31 1021.25 1021.51 1021.71 1021.73 1021.95 1022.12 1022.15 1022.13 1022.22 1022.23 1022.44 1022.45 1022.53
1010.75 1010.15 1009.79 1009.49 1009.63 1009.76 1010.09 1010.31 1010.66 1011.16 1011.84 1012.55 1013.49 1014.41 1014.81 1015.27 1015.83 1016.25 1016.75 1017.25 1017.83 1018.28 1018.55 1018.70 1018.87 1019.25 1019.53 1019.76 1020.03 1020.19 1020.25 1020.38 1020.70 1020.93 1021.23 1021.37 1021.43 1021.69 1021.85 1022.09 1022.08 1022.15 1022.27 1022.27 1022.38 1022.46 1022.48 1022.42 1022.42
1010.14 1009.85 1009.33 1009.17 1009.18 1009.43 1009.76 1010.35 1010.75 1011.52 1012.25 1013.12 1013.74 1014.41 1014.93 1015.33 1015.64 1016.33 1016.75 1017.05 1017.49 1018.06 1018.27 1018.73 1019.07 1019.36 1019.63 1019.70 1020.08 1020.23 1020.42 1020.59 1020.81 1021.01 1021.21 1021.45 1021.59 1021.90 1021.99 1022.18 1022.23 1022.15 1022.21 1022.31 1022.46 1022.58 1022.55 1022.39 1022.43
1009.97 1009.42 1008.82 1009.22 1009.16 1009.51 1009.85 1010.47 1010.89 1011.93 1012.77 1013.45 1014.11 1014.49 1014.90 1015.42 1015.75 1016.01 1016.23 1016.63 1017.11 1017.79 1018.33 1018.73 1019.07 1019.39 1019.76 1019.93 1020.15 1020.27 1020.44 1020.59 1020.67 1020.97 1021.30 1021.34 1021.57 1021.84 1022.30 1022.27 1022.32 1022.19 1022.38 1022.54 1022.61 1022.61 1022.55 1022.33 1022.51
1009.67 1009.37 1008.54 1009.21 1009.24 1009.68 1009.92 1010.00 1010.82 1011.99 1012.71 1013.39 1013.99 1014.42 1014.85 1015.18 1015.46 1015.81 1016.21 1016.61 1017.08 1017.60 1018.31 1018.69 1018.86 1019.23 1019.67 1019.96 1020.17 1020.29 1020.45 1020.60 1020.71 1020.87 1021.21 1021.51 1021.62 1021.73 1021.95 1022.11 1022.29 1022.37 1022.43 1022.39 1022.45 1022.45 1022.49 1022.58 1022.70
1009.60 1008.75 1008.65 1008.87 1009.26 1009.44 1009.83 1010.04 1011.24 1012.29 1012.79 1013.35 1013.75 1013.98 1014.47 1014.88 1015.45 1015.74 1016.21 1016.39 1016.83 1017.51 1018.20 1018.65 1018.86 1019.23 1019.61 1020.05 1020.19 1020.44 1020.61 1020.65 1020.72 1020.91 1021.14 1021.45 1021.58 1021.71 1021.92 1021.99 1022.05 1022.35 1022.40 1022.37 1022.29 1022.55 1022.58 1022.61 1022.75
1009.12 1008.87 1008.85 1008.73 1009.06 1009.29 1009.49 1010.07 1011.05 1011.70 1012.61 1013.10 1013.76 1013.75 1013.98 1014.31 1014.75 1015.31 1015.89 1016.21 1016.67 1017.33 1018.05 1018.57 1018.87 1019.29 1019.64 1020.01 1020.37 1020.42 1020.63 1020.65 1020.73 1020.82 1021.03 1021.39 1021.56 1021.75 1021.97 1021.99 1022.11 1022.29 1022.21 1022.39 1022.37 1022.59 1022.75 1022.75 1022.83
1009.51 1009.12 1008.82 1008.91 1009.01 1009.01 1009.11 1009.50 1010.45 1011.17 1011.83 1012.43 1012.97 1013.23 1013.35 1013.63 1014.23 1014.74 1015.59 1015.82 1016.47 1017.21 1017.79 1018.23 1018.65 1019.19 1019.64 1019.90 1020.11 1020.21 1020.29 1020.50 1020.59 1020.74 1021.07 1021.36 1021.58 1021.79 1021.91 1021.99 1022.12 1022.32 1022.25 1022.41 1022.53 1022.67 1022.83 1022.87 1023.17
1009.80 1009.40 1009.15 1009.06 1009.13 1009.15 1009.12 1009.23 1009.99 1010.50 1010.95 1011.65 1012.16 1012.53 1012.71 1013.25 1013.74 1014.41 1015.00 1015.49 1016.12 1016.69 1017.36 1018.05 1018.47 1018.93 1019.47 1019.73 1020.03 1020.09 1020.19 1020.35 1020.43 1020.58 1020.96 1021.25 1021.56 1021.83 1021.87 1022.02 1022.08 1022.34 1022.42 1022.60 1022.71 1022.77 1022.75 1023.00 1023.34
1009.72 1009.37 1009.34 1009.13 1009.11 1009.18 1009.23 1009.20 1009.74 1010.53 1010.95 1011.34 1011.86 1012.12 1012.37 1012.56 1012.90 1013.72 1014.39 1015.02 1015.65 1016.39 1017.09 1017.52 1017.98 1018.47 1019.10 1019.66 1019.98 1020.17 1020.29 1020.45 1020.54 1020.61 1020.72 1020.94 1021.41 1021.78 1021.87 1021.95 1021.98 1022.31 1022.39 1022.42 1022.65 1022.76 1022.87 1022.74 1023.35
1009.29 1009.57 1009.42 1009.34 1009.10 1008.74 1009.29 1008.80 1009.36 1010.09 1010.72 1011.09 1011.25 1011.60 1011.68 1012.05 1012.63 1013.11 1013.86 1014.57 1015.19 1015.76 1016.51 1017.18 1017.70 1018.24 1018.76 1019.40 1019.61 1019.90 1019.78 1019.83 1019.91 1020.19 1020.44 1020.72 1021.21 1021.53 1021.82 1021.98 1022.11 1022.22 1022.30 1022.55 1022.56 1022.55 1022.82 1022.87 1022.88
1009.12 1009.46 1009.41 1009.39 1009.23 1009.24 1009.09 1008.96 1009.38 1010.04 1010.54 1011.10 1011.17 1011.19 1011.22 1011.40 1011.89 1012.37 1013.01 1013.72 1014.56 1015.37 1016.03 1016.74 1017.49 1018.08 1018.47 1018.95 1019.29 1019.75 1019.81 1019.75 1020.01 1020.28 1020.53 1020.69 1021.06 1021.24 1021.55 1021.87 1022.07 1022.21 1022.24 1022.48 1022.58 1022.65 1022.83 1022.91 1022.83
1009.17 1009.54 1009.80 1009.88 1009.45 1008.91 1008.73 1008.82 1009.56 1010.09 1010.81 1010.66 1010.42 1010.55 1010.79 1010.97 1011.39 1011.93 1012.54 1013.23 1014.01 1014.80 1015.52 1016.40 1017.17 1017.57 1018.18 1018.69 1019.04 1019.45 1019.63 1019.73 1019.86 1020.15 1020.29 1020.50 1020.83 1021.09 1021.39 1021.53 1021.83 1022.12 1022.15 1022.29 1022.31 1022.46 1022.77 1022.86 1022.97
1009.15 1009.11 1009.24 1009.39 1009.15 1008.40 1009.14 1009.31 1010.59 1010.98 1011.21 1011.14 1010.41 1009.53 1009.86 1010.28 1010.84 1011.42 1012.01 1012.78 1013.61 1014.31 1015.22 1015.98 1016.65 1017.30 1017.77 1018.33 1018.74 1019.03 1019.49 1019.65 1019.78 1019.99 1020.10 1020.29 1020.51 1020.75 1021.13 1021.30 1021.50 1021.75 1022.00 1022.20 1022.27 1022.41 1022.59 1022.79 1022.89
1009.19 1008.89 1008.25 1008.11 1008.45 1008.45 1009.56 1009.22 1010.79 1011.47 1011.67 1011.44 1010.55 1009.58 1009.47 1009.91 1010.17 1010.71 1011.52 1012.27 1013.04 1013.92 1014.72 1015.41 1016.07 1016.69 1017.37 1017.89 1018.20 1018.67 1019.22 1019.51 1019.53 1019.75 1019.84 1020.03 1020.09 1020.30 1020.45 1020.86 1021.13 1021.49 1021.80 1022.09 1022.30 1022.22 1022.37 1022.57 1022.85
1009.95 1009.59 1009.16 1008.87 1009.61 1008.94 1009.31 1009.99 1011.04 1011.43 1011.68 1011.69 1011.13 1010.41 1009.93 1009.78 1010.02 1010.37 1011.05 1011.79 1012.42 1013.35 1014.20 1014.81 1015.47 1016.02 1016.65 1017.12 1017.76 1018.31 1018.84 1019.19 1019.25 1019.49 1019.80 1019.85 1019.93 1019.96 1020.34 1020.56 1020.85 1021.28 1021.56 1021.79 1022.08 1022.09 1022.29 1022.59 1022.84
1010.42 1010.69 1010.08 1009.45 1009.15 1008.97 1010.20 1011.03 1011.94 1012.71 1013.15 1013.14 1012.57 1011.83 1010.73 1010.26 1010.45 1010.59 1010.96 1011.72 1012.21 1012.84 1013.67 1014.44 1014.93 1015.30 1015.65 1016.37 1017.05 1017.65 1018.20 1018.73 1018.98 1019.28 1019.45 1019.59 1019.57 1019.75 1020.01 1020.32 1020.50 1020.85 1021.19 1021.50 1021.82 1021.99 1022.07 1022.43 1022.58
1011.75 1011.36 1010.97 1010.16 1010.02 1009.24 1010.34 1012.36 1014.14 1014.66 1015.10 1015.04 1014.63 1013.85 1012.69 1011.65 1011.46 1011.44 1011.56 1011.97 1012.31 1012.73 1013.31 1013.83 1014.49 1015.03 1015.56 1016.06 1016.50 1017.01 1017.48 1018.16 1018.62 1018.87 1019.09 1019.32 1019.34 1019.43 1019.70 1019.98 1020.34 1020.54 1020.86 1021.08 1021.60 1021.76 1021.88 1022.09 1022.22
1013.45 1013.03 1012.30 1010.79 1011.13 1011.18 1011.01 1013.85 1015.30 1015.81 1016.22 1016.32 1016.20 1015.74 1015.01 1014.32 1013.85 1013.38 1012.95 1013.06 1013.11 1013.23 1013.30 1013.54 1014.01 1014.53 1014.95 1015.35 1015.94 1016.37 1016.59 1017.46 1018.15 1018.28 1018.50 1018.90 1019.05 1018.96 1019.23 1019.53 1019.96 1020.25 1020.43 1020.80 1021.09 1021.38 1021.47 1021.73 1021.85
Thickness
5782 5782 5781 5776 5757 5759 5751 5755 5769 5765 5769 5783 5783 5775 5768 5771 5758 5748 5764 5765 5763 5759 5757 5756 5754 5751 5749 5748 5748 5747 5747 5747 5746 5745 5743 5741 5740 5738 5737 5736 5737 5739 5740 5741 5741 5740 5738 5737 5736
5782 5782 5779 5772 5758 5752 5753 5756 5751 5757 5771 5783 5780 5775 5769 5758 5762 5759 5761 5765 5764 5761 5759 5759 5755 5753 5751 5751 5751 5750 5748 5747 5746 5745 5742 5739 5738 5735 5734 5732 5734 5736 5738 5739 5739 5738 5737 5735 5733
5783 5783 5769 5764 5760 5750 5745 5747 5748 5757 5771 5769 5767 5774 5766 5754 5758 5764 5768 5766 5765 5761 5760 5758 5755 5754 5752 5752 5752 5751 5750 5748 5746 5744 5741 5739 5737 5735 5732 5730 5732 5733 5735 5737 5737 5736 5735 5734 5732
5779 5775 5770 5756 5758 5763 5755 5747 5747 5752 5757 5768 5772 5761 5763 5765 5764 5768 5768 5767 5766 5762 5761 5758 5756 5756 5754 5753 5753 5752 5751 5748 5747 5744 5742 5740 5738 5735 5732 5731 5731 5732 5733 5734 5735 5735 5733 5731 5734
5780 5772 5759 5759 5762 5765 5761 5752 5751 5749 5755 5761 5771 5752 5749 5763 5769 5769 5768 5768 5766 5764 5762 5760 5758 5757 5755 5754 5753 5754 5752 5749 5748 5745 5743 5741 5739 5736 5733 5731 5731 5732 5734 5734 5734 5735 5735 5735 5737
5763 5763 5758 5760 5766 5767 5763 5761 5754 5754 5760 5760 5758 5758 5753 5764 5765 5765 5767 5767 5766 5764 5762 5760 5757 5756 5756 5754 5753 5753 5752 5750 5748 5746 5744 5742 5740 5737 5735 5734 5734 5735 5735 5734 5735 5736 5737 5736 5735
5762 5764 5763 5768 5768 5766 5761 5769 5763 5763 5767 5766 5769 5755 5752 5758 5766 5766 5764 5765 5764 5763 5763 5760 5759 5756 5755 5754 5754 5752 5752 5751 5749 5747 5745 5743 5741 5739 5737 5737 5736 5737 5736 5735 5736 5737 5737 5735 5735
5768 5767 5761 5772 5771 5756 5764 5766 5769 5773 5767 5783 5781 5759 5750 5761 5766 5765 5764 5762 5762 5763 5762 5760 5759 5758 5756 5755 5754 5753 5752 5752 5749 5747 5745 5744 5742 5740 5739 5739 5738 5738 5737 5737 5737 5737 5736 5736 5735
5779 5760 5759 5768 5773 5767 5771 5766 5770 5782 5774 5778 5780 5775 5777 5770 5766 5764 5761 5759 5759 5760 5762 5762 5760 5758 5755 5754 5754 5753 5752 5752 5751 5748 5746 5745 5743 5742 5742 5740 5739 5738 5738 5738 5737 5737 5737 5737 5735
5764 5758 5767 5782 5786 5778 5776 5768 5767 5772 5772 5764 5769 5775 5773 5768 5764 5761 5758 5757 5758 5759 5760 5762 5761 5759 5757 5757 5754 5754 5753 5753 5751 5749 5747 5744 5742 5741 5741 5741 5740 5739 5738 5739 5738 5738 5737 5737 5737
5767 5762 5776 5784 5790 5789 5783 5777 5777 5776 5766 5768 5768 5769 5771 5766 5764 5761 5760 5760 5760 5761 5760 5761 5761 5758 5759 5757 5755 5754 5754 5753 5751 5750 5748 5745 5743 5741 5740 5740 5741 5739 5737 5739 5739 5738 5739 5738 5738
5756 5773 5777 5783 5789 5786 5781 5787 5781 5783 5779 5782 5779 5776 5775 5767 5766 5764 5760 5759 5757 5757 5758 5762 5762 5759 5758 5757 5756 5754 5755 5753 5752 5750 5748 5747 5745 5743 5741 5741 5740 5739 5739 5740 5740 5740 5739 5739 5739
5757 5770 5781 5788 5788 5788 5787 5782 5783 5782 5786 5784 5778 5771 5768 5767 5766 5766 5764 5762 5759 5756 5758 5760 5761 5760 5758 5758 5755 5755 5755 5754 5752 5750 5749 5748 5747 5745 5742 5741 5741 5741 5741 5742 5741 5741 5741 5742 5743
5768 5773 5780 5787 5787 5788 5781 5779 5784 5780 5782 5774 5772 5768 5767 5766 5767 5763 5762 5761 5762 5761 5761 5760 5760 5759 5758 5760 5758 5756 5755 5754 5753 5751 5750 5749 5748 5746 5744 5743 5743 5744 5744 5744 5743 5743 5743 5745 5745
5766 5764 5778 5776 5783 5778 5785 5767 5771 5776 5772 5765 5764 5766 5767 5765 5766 5764 5767 5765 5766 5764 5763 5760 5759 5759 5758 5759 5759 5757 5756 5755 5755 5753 5751 5751 5750 5749 5745 5745 5744 5746 5745 5744 5744 5745 5745 5747 5746
5756 5762 5759 5768 5777 5777 5778 5761 5777 5776 5767 5760 5761 5765 5765 5765 5766 5767 5769 5768 5767 5765 5762 5760 5762 5760 5759 5758 5759 5759 5757 5756 5756 5755 5752 5751 5751 5752 5750 5748 5746 5747 5747 5747 5747 5748 5748 5749 5749
5748 5748 5755 5760 5773 5772 5770 5765 5768 5771 5768 5761 5761 5767 5766 5766 5764 5767 5768 5769 5768 5765 5762 5759 5762 5761 5760 5757 5758 5758 5757 5756 5757 5756 5753 5752 5752 5753 5751 5750 5751 5749 5749 5749 5751 5750 5750 5750 5751
5735 5743 5750 5753 5765 5767 5764 5763 5765 5774 5768 5765 5760 5766 5766 5766 5766 5768 5768 5770 5769 5766 5763 5762 5762 5761 5760 5758 5756 5757 5757 5757 5758 5757 5756 5753 5753 5754 5753 5753 5752 5751 5752 5752 5752 5751 5751 5752 5752
5738 5742 5745 5754 5765 5763 5763 5766 5765 5774 5773 5767 5765 5766 5769 5769 5771 5773 5769 5773 5769 5766 5764 5765 5763 5762 5760 5758 5758 5759 5758 5759 5760 5759 5757 5754 5754 5755 5755 5754 5753 5751 5754 5754 5753 5754 5753 5753 5752
5729 5731 5735 5748 5758 5758 5759 5763 5768 5774 5777 5774 5770 5768 5771 5770 5770 5769 5770 5772 5769 5766 5766 5765 5765 5765 5762 5761 5760 5762 5763 5761 5762 5760 5758 5757 5755 5756 5756 5755 5754 5752 5753 5754 5754 5755 5755 5755 5754
5725 5727 5728 5734 5749 5754 5755 5755 5761 5767 5774 5777 5775 5776 5774 5773 5771 5769 5771 5771 5771 5767 5766 5767 5768 5770 5767 5764 5761 5760 5760 5760 5760 5762 5761 5760 5758 5757 5757 5757 5756 5754 5754 5755 5756 5756 5755 5756 5755
5716 5732 5732 5731 5735 5731 5751 5738 5756 5764 5764 5769 5775 5774 5776 5775 5774 5773 5771 5772 5772 5771 5770 5769 5770 5771 5770 5766 5765 5761 5763 5762 5765 5766 5765 5762 5760 5759 5758 5756 5756 5756 5755 5755 5756 5757 5757 5758 5756
5720 5730 5729 5728 5728 5730 5738 5746 5752 5760 5756 5756 5767 5773 5779 5781 5779 5777 5778 5777 5776 5775 5773 5771 5770 5770 5771 5769 5768 5764 5763 5767 5766 5765 5764 5763 5762 5762 5760 5759 5757 5757 5757 5756 5757 5757 5756 5759 5760
5728 5719 5715 5715 5721 5716 5739 5748 5740 5748 5748 5760 5772 5776 5779 5781 5781 5780 5782 5780 5778 5778 5776 5773 5770 5771 5771 5769 5769 5767 5765 5765 5764 5763 5764 5764 5766 5764 5762 5762 5761 5758 5758 5758 5760 5759 5758 5759 5761
5717 5712 5694 5693 5698 5715 5726 5735 5724 5741 5749 5755 5765 5783 5786 5787 5784 5781 5779 5779 5778 5777 5775 5773 5771 5769 5771 5770 5769 5770 5768 5767 5765 5765 5764 5764 5767 5767 5765 5764 5764 5762 5760 5759 5761 5761 5761 5760 5762
5708 5715 5706 5684 5693 5720 5719 5728 5722 5739 5749 5756 5770 5784 5792 5788 5788 5785 5782 5781 5779 5778 5777 5775 5773 5771 5771 5771 5771 5771 5769 5769 5770 5768 5768 5767 5770 5770 5769 5768 5767 5765 5763 5761 5761 5762 5763 5762 5763
5695 5695 5719 5700 5691 5717 5721 5726 5732 5740 5743 5750 5762 5774 5781 5787 5788 5786 5784 5783 5782 5779 5777 5776 5774 5774 5773 5772 5772 5772 5770 5770 5770 5769 5769 5770 5770 5772 5770 5770 5769 5767 5766 5765 5763 5764 5763 5764 5764
5696 5695 5694 5699 5682 5693 5693 5700 5704 5712 5719 5732 5745 5757 5774 5781 5783 5785 5785 5780 5780 5781 5779 5776 5776 5775 5778 5777 5774 5773 5772 5771 5772 5771 5770 5771 5773 5772 5772 5772 5772 5771 5769 5768 5766 5767 5766 5766 5768
5678 5681 5684 5699 5695 5699 5691 5686 5694 5697 5705 5712 5723 5738 5755 5770 5773 5776 5780 5779 5778 5779 5778 5777 5775 5772 5771 5774 5775 5775 5775 5772 5771 5772 5772 5773 5774 5775 5774 5774 5773 5774 5773 5772 5770 5770 5771 5770 5770
5657 5656 5667 5694 5677 5677 5701 5672 5686 5692 5698 5703 5707 5719 5732 5743 5749 5757 5766 5768 5770 5770 5775 5777 5775 5773 5772 5773 5773 5775 5778 5774 5771 5774 5775 5775 5775 5777 5777 5777 5776 5776 5776 5776 5776 5774 5776 5774 5773